GW6505 Weather Reports


time (UTC)temp
C
wind
direction
speed
KPH
gust
KPH
rain 1hr
cm
rain 24hr
cm
rain mn
cm
humidity
%
barometer
mb
20260506122436 18 201 4.8 4.8 0.00 0.00 0.00 71 1017.0
20260506121431 18 240 4.8 9.7 0.00 0.00 0.00 71 1017.1
20260506120432 18 269 1.6 9.7 0.00 0.00 0.00 71 1017.2
20260506115427 18 82 1.6 1.6 0.00 0.00 0.00 71 1017.4
20260506114422 18 180 8.0 11.3 0.00 0.00 0.00 71 1017.6
20260506113418 18 49 1.6 3.2 0.00 0.00 0.00 72 1016.7
20260506112418 18 137 4.8 6.4 0.00 0.00 0.00 72 1016.8
20260506111413 18 60 0.0 1.6 0.00 0.00 0.00 72 1017.0
20260506110408 17 82 0.0 1.6 0.00 0.00 0.00 72 1017.0
20260506105406 17 96 0.0 1.6 0.00 0.00 0.00 72 1017.0
20260506104401 17 91 0.0 3.2 0.00 0.00 0.00 72 1017.0
20260506103356 17 95 0.0 6.4 0.00 0.00 0.00 71 1017.1
20260506102351 17 76 0.0 3.2 0.00 0.00 0.00 71 1016.8
20260506101350 17 160 0.0 1.6 0.00 0.00 0.00 70 1016.9
20260506100346 17 239 1.6 4.8 0.00 0.00 0.00 69 1016.7
20260506095341 17 57 1.6 4.8 0.00 0.00 0.00 69 1016.7
20260506094337 17 95 1.6 6.4 0.00 0.00 0.00 68 1016.9
20260506093337 17 211 1.6 3.2 0.00 0.00 0.00 67 1017.0
20260506092333 17 77 0.0 0.0 0.00 0.00 0.00 66 1016.6
20260506091333 18 146 1.6 3.2 0.00 0.00 0.00 66 1016.7
20260506090333 18 246 1.6 4.8 0.00 0.00 0.00 65 1016.5
20260506085332 17 53 0.0 0.0 0.00 0.00 0.00 64 1016.7
20260506084332 18 32 1.6 1.6 0.00 0.00 0.00 63 1016.7
20260506083326 18 53 1.6 1.6 0.00 0.00 0.00 61 1016.6
20260506082325 18 94 0.0 0.0 0.00 0.00 0.00 60 1016.8
20260506081320 19 46 0.0 0.0 0.00 0.00 0.00 58 1016.9
20260506080319 19 219 6.4 11.3 0.00 0.00 0.00 58 1016.8
20260506073309 20 96 0.0 3.2 0.00 0.00 0.00 56 1016.9
20260506072309 19 252 3.2 4.8 0.00 0.00 0.00 57 1017.0
20260506071305 20 202 3.2 9.7 0.00 0.00 0.00 56 1017.0
20260506070304 20 240 1.6 6.4 0.00 0.00 0.00 55 1017.2
20260506062247 20 65 4.8 6.4 0.00 0.00 0.00 53 1017.4
20260506061246 20 217 3.2 4.8 0.00 0.00 0.00 54 1017.3
20260506060242 20 268 1.6 3.2 0.00 0.00 0.00 55 1017.2
20260506051231 20 61 0.0 3.2 0.00 0.00 0.00 52 1017.7
20260506050226 20 77 1.6 4.8 0.00 0.00 0.00 51 1017.8
20260506044220 21 63 0.0 9.7 0.00 0.00 0.00 50 1017.8
20260506043215 21 89 0.0 1.6 0.00 0.00 0.00 48 1017.8
20260506042212 21 90 1.6 3.2 0.00 0.00 0.00 48 1017.9
20260506041207 21 85 0.0 1.6 0.00 0.00 0.00 46 1017.5
20260506040207 21 93 3.2 4.8 0.00 0.00 0.00 46 1017.5
20260506035206 21 69 1.6 4.8 0.00 0.10 0.10 45 1017.6
20260506034206 21 59 0.0 3.2 0.00 0.10 0.10 45 1017.5
20260506033206 21 136 1.6 4.8 0.00 0.10 0.10 45 1017.3
20260506032206 22 95 1.6 6.4 0.00 0.10 0.10 44 1017.4
20260506031205 22 66 1.6 6.4 0.00 0.10 0.10 43 1017.3
20260506030201 22 78 0.0 4.8 0.00 0.10 0.10 43 1017.4
20260506025159 22 62 1.6 3.2 0.00 0.10 0.10 42 1017.5
20260506024159 22 49 3.2 9.7 0.00 0.10 0.10 41 1017.4
20260506023159 22 158 0.0 9.7 0.00 0.10 0.10 41 1017.2
20260506022159 23 174 3.2 9.7 0.00 0.10 0.10 40 1017.3
20260506021159 23 180 3.2 6.4 0.00 0.10 0.10 39 1017.1
20260506020154 23 67 0.0 4.8 0.00 0.10 0.10 38 1017.0
20260506015149 23 65 1.6 3.2 0.00 0.10 0.10 37 1017.0
20260506014147 23 124 0.0 1.6 0.00 0.10 0.10 38 1016.9
20260506013142 23 147 1.6 11.3 0.00 0.10 0.10 39 1017.0
20260506012141 23 98 0.0 4.8 0.00 0.10 0.10 37 1016.9
20260506011140 23 85 3.2 4.8 0.00 0.10 0.10 37 1016.7
20260506010136 23 104 1.6 4.8 0.00 0.10 0.10 37 1016.5
20260506005136 23 92 1.6 4.8 0.00 0.10 0.10 38 1016.5
20260506004135 23 100 1.6 9.7 0.00 0.10 0.10 37 1016.4
20260506003133 23 284 3.2 4.8 0.00 0.10 0.10 35 1016.4
20260506002131 23 121 1.6 9.7 0.00 0.10 0.10 36 1016.3
20260506001130 24 7 4.8 6.4 0.00 0.10 0.10 35 1016.2
20260506000125 24 200 3.2 14.5 0.00 0.10 0.10 35 1016.1
20260505235120 24 9 3.2 9.7 0.00 0.10 0.10 35 1016.2
20260505234119 25 137 3.2 6.4 0.00 0.10 0.10 35 1016.1
20260505233114 25 131 4.8 9.7 0.00 0.10 0.10 33 1015.9
20260505232114 25 257 4.8 11.3 0.00 0.10 0.10 33 1015.8
20260505231110 25 190 3.2 16.1 0.00 0.10 0.10 33 1015.6
20260505230109 25 249 3.2 11.3 0.00 0.10 0.10 33 1015.6
20260505225108 25 268 14.5 24.1 0.00 0.10 0.10 32 1015.5
20260505224107 25 211 9.7 14.5 0.00 0.10 0.10 31 1015.3
20260505223106 26 262 6.4 16.1 0.00 0.10 0.10 32 1015.2
20260505222105 26 84 0.0 6.4 0.00 0.10 0.10 31 1015.0
20260505221104 26 161 11.3 14.5 0.00 0.10 0.10 30 1015.0
20260505220100 26 86 4.8 14.5 0.00 0.10 0.10 29 1015.1
20260505215055 27 212 17.7 24.1 0.00 0.10 0.10 28 1014.8
20260505214055 26 274 3.2 11.3 0.00 0.10 0.10 30 1014.7
20260505213055 26 252 6.4 27.4 0.00 0.10 0.10 29 1014.7
20260505212055 26 224 3.2 14.5 0.00 0.10 0.10 31 1014.7
20260505211055 26 154 11.3 16.1 0.00 0.10 0.10 29 1014.6
20260505210054 27 246 6.4 24.1 0.00 0.10 0.10 30 1014.6
20260505205049 27 84 3.2 14.5 0.00 0.10 0.10 30 1014.3
20260505204044 27 211 9.7 22.5 0.00 0.10 0.10 29 1014.5
20260505203043 28 266 8.0 24.1 0.00 0.10 0.10 29 1014.3
20260505202040 28 223 9.7 14.5 0.00 0.10 0.10 29 1014.3
20260505201036 28 269 9.7 16.1 0.00 0.10 0.10 28 1014.9
20260505200036 27 245 8.0 20.9 0.00 0.10 0.10 29 1014.9
20260505195035 28 216 6.4 24.1 0.00 0.10 0.10 29 1015.1
20260505194033 27 239 4.8 12.9 0.00 0.10 0.10 31 1015.0
20260505193028 27 267 9.7 17.7 0.00 0.10 0.10 31 1015.2
20260505192024 27 210 8.0 30.6 0.00 0.10 0.10 30 1015.5
20260505191020 28 253 6.4 14.5 0.00 0.10 0.10 32 1015.3
20260505190016 27 241 6.4 16.1 0.00 0.10 0.10 32 1015.4
20260505185015 27 305 6.4 11.3 0.00 0.10 0.10 31 1015.6
20260505184015 27 303 8.0 17.7 0.00 0.10 0.10 32 1015.7
20260505183015 27 258 14.5 22.5 0.00 0.10 0.10 31 1016.0
20260505182014 27 238 8.0 29.0 0.00 0.10 0.10 33 1016.1
20260505181014 27 289 9.7 20.9 0.00 0.10 0.10 33 1016.2
20260505180014 27 257 12.9 24.1 0.00 0.10 0.10 35 1016.2
20260505175012 27 103 6.4 12.9 0.00 0.10 0.10 36 1016.3
20260505174010 27 353 12.9 17.7 0.00 0.10 0.10 36 1016.3
20260505173009 27 264 16.1 22.5 0.00 0.10 0.10 35 1016.4
20260505172008 26 342 8.0 12.9 0.00 0.10 0.10 37 1016.6
20260505171007 26 249 4.8 20.9 0.00 0.10 0.10 37 1016.5
20260505170006 26 186 12.9 17.7 0.00 0.10 0.10 39 1016.8
20260505165003 26 196 3.2 9.7 0.00 0.10 0.10 41 1016.8
20260505164004 26 224 9.7 12.9 0.00 0.10 0.10 39 1016.9
20260505163001 25 318 6.4 9.7 0.00 0.10 0.10 39 1017.2
20260505161959 25 214 6.4 11.3 0.00 0.10 0.10 40 1017.3
20260505160959 25 243 3.2 11.3 0.00 0.10 0.10 42 1017.5
20260505152957 23 239 8.0 17.7 0.00 0.10 0.10 45 1018.2
20260505151955 23 235 3.2 11.3 0.00 0.10 0.10 51 1018.0
20260505150954 23 172 4.8 9.7 0.00 0.10 0.10 46 1018.0
20260505124920 16 197 3.2 3.2 0.00 0.10 0.10 71 1018.4
20260505123919 16 92 0.0 0.0 0.00 0.10 0.10 73 1018.5